DLH9C LSZH-EDDF

Flight info

Callsign DLH9C
Flight time 0h 41m
Altitude 26000
Route DEGES Z1 SUDEN T164 KOVAN T163 SPESA SPESA5B
Aircraft A321/M-SDE2E3FGIJ1LORWXYZ/HB1

Departure

Time 2026-05-05 18:38
Airport Zürich Airport (LSZH)

Arrival

Time 2026-05-05 19:19
Airport Frankfurt Main Airport (EDDF)
Time Latitude Longitude Altitude Speed Heading
2026-05-05 18:09 47.45422 8.55873 1407 ft 0 kts 185°
2026-05-05 18:27 47.45425 8.55873 1407 ft 3 kts 186°
2026-05-05 18:27 47.45450 8.55880 1411 ft 4 kts 189°
2026-05-05 18:28 47.45493 8.55854 1412 ft 4 kts 130°
2026-05-05 18:28 47.45505 8.55821 1409 ft 4 kts 99°
2026-05-05 18:28 47.45507 8.55782 1413 ft 4 kts 91°
2026-05-05 18:29 47.45507 8.55771 1413 ft 0 kts 96°
2026-05-05 18:31 47.45505 8.55793 1413 ft 4 kts 96°
2026-05-05 18:31 47.45501 8.55856 1412 ft 8 kts 96°
2026-05-05 18:31 47.45498 8.55890 1410 ft 1 kts 96°
2026-05-05 18:32 47.45497 8.55915 1410 ft 4 kts 96°
2026-05-05 18:32 47.45493 8.55971 1409 ft 5 kts 96°
2026-05-05 18:32 47.45487 8.56041 1411 ft 9 kts 96°
2026-05-05 18:32 47.45479 8.56148 1407 ft 8 kts 96°
2026-05-05 18:33 47.45480 8.56206 1408 ft 2 kts 75°
2026-05-05 18:33 47.45490 8.56231 1415 ft 4 kts 56°
2026-05-05 18:33 47.45510 8.56269 1410 ft 7 kts 51°
2026-05-05 18:33 47.45546 8.56333 1414 ft 8 kts 51°
2026-05-05 18:34 47.45580 8.56397 1416 ft 9 kts 53°
2026-05-05 18:34 47.45594 8.56484 1414 ft 9 kts 90°
2026-05-05 18:34 47.45589 8.56579 1418 ft 9 kts 97°
2026-05-05 18:34 47.45581 8.56674 1420 ft 9 kts 97°
2026-05-05 18:35 47.45573 8.56772 1423 ft 10 kts 95°
2026-05-05 18:35 47.45566 8.56879 1420 ft 11 kts 96°
2026-05-05 18:35 47.45568 8.56978 1421 ft 8 kts 68°
2026-05-05 18:35 47.45600 8.57015 1424 ft 4 kts 19°
2026-05-05 18:36 47.45632 8.57021 1425 ft 7 kts
2026-05-05 18:36 47.45665 8.56970 1424 ft 9 kts 283°
2026-05-05 18:36 47.45666 8.56952 1424 ft 0 kts 277°
2026-05-05 18:37 47.45666 8.56950 1424 ft 0 kts 277°
2026-05-05 18:37 47.45667 8.56947 1424 ft 2 kts 277°
2026-05-05 18:38 47.45674 8.56839 1422 ft 38 kts 275°
2026-05-05 18:38 47.45732 8.56018 1415 ft 118 kts 276°
2026-05-05 18:38 47.45844 8.54554 1634 ft 156 kts 276°
2026-05-05 18:38 47.45985 8.52951 2413 ft 159 kts 275°
2026-05-05 18:39 47.46102 8.51322 3196 ft 160 kts 273°
2026-05-05 18:39 47.46189 8.49688 3875 ft 158 kts 271°
2026-05-05 18:39 47.46266 8.48081 4575 ft 155 kts 268°
2026-05-05 18:39 47.45823 8.46549 4849 ft 181 kts 226°
2026-05-05 18:40 47.44793 8.45341 5104 ft 200 kts 226°
2026-05-05 18:40 47.43969 8.43635 5509 ft 207 kts 242°
2026-05-05 18:40 47.43336 8.41711 6022 ft 210 kts 246°
2026-05-05 18:40 47.42467 8.39892 6249 ft 233 kts 219°
2026-05-05 18:41 47.40844 8.39145 6568 ft 263 kts 181°
2026-05-05 18:41 47.39074 8.40061 7262 ft 282 kts 147°
2026-05-05 18:41 47.37864 8.42387 8061 ft 296 kts 114°
2026-05-05 18:41 47.37504 8.45419 8891 ft 304 kts 93°
2026-05-05 18:42 47.37645 8.48542 9754 ft 307 kts 84°
2026-05-05 18:42 47.37972 8.51706 10304 ft 320 kts 83°
2026-05-05 18:42 47.38337 8.55091 10524 ft 343 kts 83°
2026-05-05 18:42 47.38663 8.58648 10680 ft 366 kts 85°
2026-05-05 18:43 47.38938 8.62488 10879 ft 384 kts 86°
2026-05-05 18:43 47.39155 8.66460 11409 ft 391 kts 88°
2026-05-05 18:43 47.39328 8.70491 12034 ft 396 kts 89°
2026-05-05 18:43 47.39481 8.74584 12665 ft 400 kts 89°
2026-05-05 18:44 47.39628 8.78702 13342 ft 403 kts 88°
2026-05-05 18:44 47.39779 8.82851 13965 ft 406 kts 88°
2026-05-05 18:44 47.39937 8.87023 14554 ft 409 kts 88°
2026-05-05 18:44 47.40102 8.91175 15145 ft 411 kts 88°
2026-05-05 18:45 47.40275 8.95399 15740 ft 414 kts 88°
2026-05-05 18:45 47.40453 8.99659 16305 ft 417 kts 88°
2026-05-05 18:45 47.40628 9.03952 16871 ft 419 kts 88°
2026-05-05 18:45 47.40798 9.08271 17422 ft 422 kts 88°
2026-05-05 18:46 47.40965 9.12616 17983 ft 425 kts 89°
2026-05-05 18:46 47.41247 9.16980 18458 ft 429 kts 82°
2026-05-05 18:46 47.42000 9.21272 18880 ft 434 kts 71°
2026-05-05 18:46 47.43266 9.25348 19306 ft 439 kts 59°
2026-05-05 18:47 47.45163 9.28883 19799 ft 442 kts 44°
2026-05-05 18:47 47.47651 9.31563 20260 ft 443 kts 26°
2026-05-05 18:47 47.50512 9.33076 20700 ft 444 kts
2026-05-05 18:47 47.53576 9.33720 21137 ft 446 kts
2026-05-05 18:48 47.56663 9.34299 21586 ft 449 kts
2026-05-05 18:48 47.59779 9.34881 22016 ft 452 kts
2026-05-05 18:48 47.62918 9.35482 22455 ft 455 kts
2026-05-05 18:48 47.66069 9.36097 22804 ft 457 kts
2026-05-05 18:49 47.69192 9.36716 22874 ft 457 kts
2026-05-05 18:49 47.72348 9.37231 22872 ft 456 kts
2026-05-05 18:49 47.75516 9.37224 22874 ft 456 kts 358°
2026-05-05 18:49 47.78731 9.37194 22868 ft 456 kts 358°
2026-05-05 18:50 47.81868 9.37163 22865 ft 455 kts 358°
2026-05-05 18:50 47.85045 9.37128 22871 ft 455 kts 359°
2026-05-05 18:50 47.88208 9.37091 22864 ft 454 kts 359°
2026-05-05 18:50 47.91379 9.37057 22866 ft 454 kts 359°
2026-05-05 18:51 47.94545 9.37025 22865 ft 454 kts 359°
2026-05-05 18:51 47.97705 9.36993 22865 ft 454 kts 359°
2026-05-05 18:51 48.00865 9.36955 22870 ft 454 kts 359°
2026-05-05 18:51 48.03994 9.36911 22862 ft 454 kts 358°
2026-05-05 18:52 48.07158 9.36866 22861 ft 454 kts 358°
2026-05-05 18:52 48.10325 9.36828 22863 ft 455 kts 358°
2026-05-05 18:52 48.13486 9.36793 22862 ft 455 kts 359°
2026-05-05 18:52 48.16654 9.36760 22863 ft 455 kts 359°
2026-05-05 18:53 48.19824 9.36733 22861 ft 455 kts 359°
2026-05-05 18:53 48.22991 9.36707 22860 ft 454 kts 359°
2026-05-05 18:53 48.26153 9.36678 22860 ft 455 kts 359°
2026-05-05 18:53 48.29323 9.36644 22856 ft 455 kts 359°
2026-05-05 18:54 48.32497 9.36608 22855 ft 456 kts 359°
2026-05-05 18:54 48.35669 9.36571 22857 ft 456 kts 359°
2026-05-05 18:54 48.38846 9.36536 22854 ft 456 kts 359°
2026-05-05 18:54 48.42025 9.36498 22854 ft 456 kts 359°
2026-05-05 18:55 48.45197 9.36462 22851 ft 456 kts 359°
2026-05-05 18:55 48.48331 9.36427 22848 ft 455 kts 359°
2026-05-05 18:55 48.51503 9.36394 22849 ft 456 kts 359°
2026-05-05 18:55 48.54675 9.36361 22840 ft 456 kts 359°
2026-05-05 18:56 48.57852 9.36329 22838 ft 456 kts 359°
2026-05-05 18:56 48.61033 9.36295 22839 ft 456 kts 359°
2026-05-05 18:56 48.64203 9.36259 22838 ft 456 kts 359°
2026-05-05 18:56 48.67380 9.36225 22838 ft 456 kts 359°
2026-05-05 18:57 48.70553 9.36184 22836 ft 455 kts 359°
2026-05-05 18:57 48.73685 9.36144 22839 ft 454 kts 359°
2026-05-05 18:57 48.76850 9.36104 22839 ft 454 kts 359°
2026-05-05 18:57 48.80014 9.36067 22840 ft 454 kts 359°
2026-05-05 18:58 48.83173 9.36029 22839 ft 454 kts 359°
2026-05-05 18:58 48.86338 9.35991 22841 ft 454 kts 359°
2026-05-05 18:58 48.89502 9.35958 22842 ft 454 kts 359°
2026-05-05 18:58 48.92632 9.35930 22843 ft 454 kts 359°
2026-05-05 18:59 48.95788 9.35898 22845 ft 454 kts 359°
2026-05-05 18:59 48.98968 9.35863 22845 ft 453 kts 359°
2026-05-05 18:59 49.02119 9.35826 22846 ft 453 kts 359°
2026-05-05 18:59 49.05284 9.35791 22846 ft 453 kts 359°
2026-05-05 19:00 49.08447 9.35752 22847 ft 453 kts 359°
2026-05-05 19:00 49.11555 9.35880 22846 ft 454 kts
2026-05-05 19:00 49.14686 9.36604 22850 ft 454 kts
2026-05-05 19:00 49.17811 9.37388 22848 ft 454 kts
2026-05-05 19:01 49.20935 9.38176 22853 ft 454 kts
2026-05-05 19:01 49.24064 9.38966 22846 ft 454 kts
2026-05-05 19:01 49.27182 9.39753 22846 ft 454 kts
2026-05-05 19:01 49.30294 9.40541 22846 ft 454 kts
2026-05-05 19:02 49.33411 9.41331 22846 ft 454 kts
2026-05-05 19:02 49.36530 9.42121 22846 ft 454 kts
2026-05-05 19:02 49.39651 9.42886 22648 ft 453 kts
2026-05-05 19:02 49.42790 9.43158 21914 ft 447 kts 354°
2026-05-05 19:03 49.45835 9.42604 21261 ft 438 kts 352°
2026-05-05 19:03 49.48856 9.42042 20487 ft 435 kts 352°
2026-05-05 19:03 49.51849 9.41488 19753 ft 430 kts 352°
2026-05-05 19:03 49.54769 9.40943 19056 ft 426 kts 352°
2026-05-05 19:04 49.57697 9.40388 18363 ft 422 kts 352°
2026-05-05 19:04 49.60598 9.39831 17629 ft 418 kts 351°
2026-05-05 19:04 49.63466 9.39273 16913 ft 413 kts 351°
2026-05-05 19:04 49.66299 9.38724 16220 ft 408 kts 351°
2026-05-05 19:05 49.69105 9.38171 15526 ft 402 kts 349°
2026-05-05 19:05 49.71816 9.37280 14854 ft 396 kts 344°
2026-05-05 19:05 49.74483 9.36291 14194 ft 391 kts 344°
2026-05-05 19:05 49.77119 9.35316 13515 ft 387 kts 344°
2026-05-05 19:06 49.79688 9.34373 12767 ft 382 kts 344°
2026-05-05 19:06 49.82275 9.33421 12025 ft 379 kts 344°
2026-05-05 19:06 49.84831 9.32487 11311 ft 374 kts 344°
2026-05-05 19:06 49.87359 9.31560 10597 ft 371 kts 344°
2026-05-05 19:07 49.89860 9.30640 9918 ft 367 kts 344°
2026-05-05 19:07 49.91511 9.30032 9448 ft 365 kts 344°
2026-05-05 19:07 49.94767 9.28826 8529 ft 359 kts 344°
2026-05-05 19:07 49.97135 9.27947 8381 ft 340 kts 344°
2026-05-05 19:08 49.99355 9.27133 8243 ft 314 kts 344°
2026-05-05 19:08 50.01406 9.26393 8061 ft 293 kts 344°
2026-05-05 19:08 50.03364 9.25692 7595 ft 285 kts 344°
2026-05-05 19:08 50.05284 9.25004 7050 ft 281 kts 344°
2026-05-05 19:09 50.07178 9.24301 6846 ft 281 kts 344°
2026-05-05 19:09 50.09024 9.23601 6800 ft 262 kts 344°
2026-05-05 19:09 50.10753 9.22957 6539 ft 251 kts 344°
2026-05-05 19:09 50.12415 9.22342 6141 ft 247 kts 344°
2026-05-05 19:10 50.14070 9.21725 5970 ft 244 kts 344°
2026-05-05 19:10 50.15713 9.21020 5968 ft 244 kts 332°
2026-05-05 19:10 50.17003 9.19406 5973 ft 237 kts 300°
2026-05-05 19:10 50.17464 9.17845 5967 ft 233 kts 281°
2026-05-05 19:11 50.17715 9.15389 5975 ft 231 kts 267°
2026-05-05 19:11 50.17410 9.12957 5975 ft 228 kts 248°
2026-05-05 19:11 50.16744 9.10713 5969 ft 228 kts 236°
2026-05-05 19:11 50.15864 9.08656 5969 ft 228 kts 241°
2026-05-05 19:12 50.15235 9.06386 5974 ft 229 kts 249°
2026-05-05 19:12 50.14692 9.04040 5973 ft 229 kts 249°
2026-05-05 19:12 50.14159 9.01731 5968 ft 228 kts 249°
2026-05-05 19:12 50.13625 8.99438 5786 ft 221 kts 249°
2026-05-05 19:13 50.13110 8.97234 5531 ft 213 kts 249°
2026-05-05 19:13 50.12608 8.95092 5250 ft 207 kts 249°
2026-05-05 19:13 50.12120 8.93005 4965 ft 202 kts 249°
2026-05-05 19:13 50.11645 8.90982 4716 ft 195 kts 249°
2026-05-05 19:14 50.11190 8.89042 4457 ft 185 kts 249°
2026-05-05 19:14 50.10756 8.87195 4204 ft 177 kts 249°
2026-05-05 19:14 50.10339 8.85424 3966 ft 171 kts 249°
2026-05-05 19:14 50.09931 8.83692 3739 ft 170 kts 250°
2026-05-05 19:15 50.09525 8.81965 3509 ft 170 kts 249°
2026-05-05 19:15 50.09124 8.80264 3288 ft 169 kts 250°
2026-05-05 19:15 50.08717 8.78539 3063 ft 169 kts 249°
2026-05-05 19:15 50.08312 8.76823 2823 ft 168 kts 250°
2026-05-05 19:16 50.07908 8.75116 2595 ft 168 kts 250°
2026-05-05 19:16 50.07505 8.73411 2386 ft 167 kts 250°
2026-05-05 19:16 50.07109 8.71735 2154 ft 159 kts 250°
2026-05-05 19:16 50.06746 8.70202 1943 ft 145 kts 250°
2026-05-05 19:17 50.06404 8.68758 1753 ft 140 kts 249°
2026-05-05 19:17 50.06069 8.67348 1571 ft 138 kts 249°
2026-05-05 19:17 50.05736 8.65943 1379 ft 138 kts 250°
2026-05-05 19:17 50.05402 8.64537 1189 ft 139 kts 249°
2026-05-05 19:18 50.05065 8.63118 1002 ft 141 kts 249°
2026-05-05 19:18 50.04724 8.61686 819 ft 141 kts 249°
2026-05-05 19:18 50.04386 8.60252 620 ft 141 kts 249°
2026-05-05 19:18 50.04050 8.58821 422 ft 141 kts 250°
2026-05-05 19:19 50.03720 8.57455 363 ft 119 kts 248°
2026-05-05 19:19 50.03489 8.56494 356 ft 70 kts 250°
2026-05-05 19:19 50.03357 8.55940 356 ft 50 kts 249°
2026-05-05 19:19 50.03310 8.55500 343 ft 37 kts 281°
2026-05-05 19:20 50.03342 8.55249 343 ft 8 kts 280°
2026-05-05 19:20 50.03343 8.55240 343 ft 0 kts 280°
2026-05-05 19:20 50.03345 8.55225 342 ft 2 kts 280°
2026-05-05 19:20 50.03349 8.55189 347 ft 7 kts 279°
2026-05-05 19:21 50.03362 8.55055 350 ft 16 kts 278°
2026-05-05 19:21 50.03350 8.54876 337 ft 18 kts 250°
2026-05-05 19:21 50.03301 8.54670 336 ft 22 kts 250°
2026-05-05 19:21 50.03281 8.54521 337 ft 11 kts 292°
2026-05-05 19:22 50.03345 8.54463 335 ft 11 kts 339°
2026-05-05 19:22 50.03386 8.54439 338 ft 0 kts 340°
2026-05-05 19:23 50.03404 8.54429 337 ft 5 kts 340°
2026-05-05 19:23 50.03474 8.54389 347 ft 16 kts 340°
2026-05-05 19:23 50.03590 8.54322 341 ft 20 kts 340°
2026-05-05 19:24 50.03670 8.54370 349 ft 14 kts 66°
2026-05-05 19:24 50.03706 8.54518 344 ft 15 kts 70°
2026-05-05 19:24 50.03744 8.54677 354 ft 17 kts 70°
2026-05-05 19:24 50.03786 8.54857 355 ft 19 kts 69°
2026-05-05 19:25 50.03833 8.55053 354 ft 20 kts 70°
2026-05-05 19:25 50.03884 8.55264 354 ft 22 kts 70°
2026-05-05 19:25 50.03939 8.55492 357 ft 23 kts 69°
2026-05-05 19:25 50.03998 8.55738 358 ft 25 kts 69°
2026-05-05 19:26 50.04051 8.55941 356 ft 13 kts 51°
2026-05-05 19:26 50.04123 8.55953 356 ft 10 kts 342°
2026-05-05 19:26 50.04185 8.55920 356 ft 10 kts 342°
2026-05-05 19:26 50.04241 8.55958 362 ft 10 kts 57°
2026-05-05 19:27 50.04277 8.56058 356 ft 11 kts 40°
2026-05-05 19:27 50.04352 8.56047 359 ft 12 kts 341°
2026-05-05 19:27 50.04432 8.56058 362 ft 13 kts 45°
2026-05-05 19:27 50.04469 8.56191 358 ft 9 kts 69°
2026-05-05 19:28 50.04460 8.56255 363 ft 7 kts 158°
2026-05-05 19:28 50.04431 8.56268 361 ft 3 kts 162°
2026-05-05 19:28 50.04420 8.56273 359 ft 1 kts 162°
2026-05-05 19:28 50.04418 8.56275 358 ft 0 kts 162°